Regional Weather Roundup
Issued by NWS

Home | Current Version | Previous Version | Text Only | Print | Product List | Glossary On
Versions: 1 2 3 4 5 6 7 8 9 10 11 12 13 14 15 16 17 18 19 20 21 22 23 24 25 26 27 28 29 30 31 32 33 34 35 36 37 38 39 40 41 42 43 44 45 46 47 48 49 50
374
ASUS43 KOAX 220610
RWRNE

WEATHER ROUNDUP FOR NEBRASKA
NATIONAL WEATHER SERVICE OMAHA NE
100 AM CDT SUN OCT 22 2017

NOTES: SATELLITE DATA IS BEING USED TO AUGMENT CLOUD COVER ABOVE
       12000 FEET.
       "FAIR" INDICATES FEW OR NO CLOUDS BELOW 12,000 FEET WITH NO
       SIGNIFICANT WEATHER AND/OR OBSTRUCTIONS TO VISIBILITY.


NEZ001>004-019>022-054>056-220700-
NEBRASKA PANHANDLE

CITY           SKY/WX    TMP DP  RH WIND       PRES   REMARKS
SCOTTSBLUFF    CLEAR     33  18  53 N8        30.07S WCI  26
6HR MIN TEMP:  33; 6HR MAX TEMP:  52;

ALLIANCE       CLEAR     24  17  74 W10       30.04F HAZE    WCI  14
6HR MIN TEMP:  23; 6HR MAX TEMP:  46;

CHADRON        CLEAR     29  13  51 W10       30.02F WCI  20
6HR MIN TEMP:  27; 6HR MAX TEMP:  50;

GORDON         FAIR      32  20  63 SW6       30.01S WCI  26
6HR MIN TEMP:  31; 6HR MAX TEMP:  52;

KIMBALL        CLEAR     32  17  53 W3        30.10S
SIDNEY         CLEAR     37  17  44 W10       30.11R WCI  30
6HR MIN TEMP:  33; 6HR MAX TEMP:  50;

$$

NEZ057>060-069>072-079>082-220700-
SOUTHWEST NEBRASKA

CITY           SKY/WX    TMP DP  RH WIND       PRES   REMARKS
NORTH PLATTE   CLEAR     32  28  85 NW6       30.08R WCI  26
6HR MIN TEMP:  31; 6HR MAX TEMP:  48;

IMPERIAL       CLEAR     40  21  46 NW7       30.10R
6HR MIN TEMP:  39; 6HR MAX TEMP:  53;

LEXINGTON      CLEAR     35  28  74 W8        30.07R WCI  29
MCCOOK         CLEAR     37  26  64 W9        30.10R WCI  30
6HR MIN TEMP:  35; 6HR MAX TEMP:  55;

OGALLALA       CLEAR     37  24  59 W5        30.07R WCI  33
$$

NEZ005>010-023>029-035>040-094-220700-
NORTH CENTRAL NEBRASKA

CITY           SKY/WX    TMP DP  RH WIND       PRES   REMARKS
VALENTINE      CLEAR     32  28  85 SW7       30.01S WCI  26
6HR MIN TEMP:  31; 6HR MAX TEMP:  53;

AINSWORTH      CLEAR     33  29  85 SW5       30.01S WCI  28
BROKEN BOW     CLOUDY    34  28  79 CALM      30.06R
6HR MIN TEMP:  33; 6HR MAX TEMP:  48;

O`NEILL        PTCLDY    39  32  75 W7        30.01R WCI  34
ORD            PTCLDY    34  31  88 SW5       30.04R WCI  30
6HR MIN TEMP:  34; 6HR MAX TEMP:  50;

THEDFORD       CLEAR     33  27  80 SW3       30.06R
$$

NEZ041-046>049-061>064-073>077-083>087-220700-
SOUTH CENTRAL NEBRASKA

CITY           SKY/WX    TMP DP  RH WIND       PRES   REMARKS
GRAND ISLAND   CLEAR     39  37  92 SW5       30.06R
6HR MIN TEMP:  39; 6HR MAX TEMP:  50;

AURORA         CLOUDY    40  37  86 W3        30.05R
HASTINGS       CLOUDY    40  36  86 CALM      30.06R
6HR MIN TEMP:  39; 6HR MAX TEMP:  51;

HEBRON         CLOUDY    46  41  81 W3        30.03F
HOLDREGE       CLOUDY    38  30  74 NW6       30.06S WCI  33
KEARNEY        CLEAR     41  33  73 CALM      30.06R
YORK           CLOUDY    41  39  93 CALM      30.05R
$$

NEZ011>018-030>034-042>045-220700-
NORTHEAST NEBRASKA

CITY           SKY/WX    TMP DP  RH WIND       PRES   REMARKS
NORFOLK        PTCLDY    38  36  92 CALM      30.01R
6HR MIN TEMP:  37; 6HR MAX TEMP:  50;

ALBION         CLEAR     34  32  94 CALM      30.03R
BLAIR          CLOUDY    47  42  82 CALM      30.00R
COLUMBUS       PTCLDY    42  38  85 W3        30.04R
FREMONT        CLOUDY    45  40  82 W3        30.02R
TEKAMAH        PTCLDY    45  40  82 SE3       30.00R
6HR MIN TEMP:  45; 6HR MAX TEMP:  56;

WAYNE          PTCLDY    38  36  91 CALM      30.00R
$$

NEZ050>053-065>068-078-088>093-220700-
SOUTHEAST NEBRASKA

CITY           SKY/WX    TMP DP  RH WIND       PRES   REMARKS
LINCOLN        CLOUDY    49  40  71 CALM      30.04R
6HR MIN TEMP:  49; 6HR MAX TEMP:  57;

OMAHA EPPLEY   CLOUDY    52  40  63 W3        30.00R
6HR MIN TEMP:  51; 6HR MAX TEMP:  58;

BEATRICE       CLOUDY    48  43  81 NW5       30.02S
FALLS CITY     CLOUDY    53  44  71 NW8       29.99S
6HR MIN TEMP:  53; 6HR MAX TEMP:  60; 6HR PCP:  0.01;

NEBRASKA CITY  MOCLDY    51  43  73 NW5       30.00S
PLATTSMOUTH    CLOUDY    50  42  74 W3        30.01S
$$

NEZ044-045-051>053-067-220700-
OMAHA AREA

CITY           SKY/WX    TMP DP  RH WIND       PRES   REMARKS
OMAHA EPPLEY   CLOUDY    52  40  63 W3        30.00R
6HR MIN TEMP:  51; 6HR MAX TEMP:  58;

BLAIR          CLOUDY    47  42  82 CALM      30.00R
FREMONT        CLOUDY    45  40  82 W3        30.02R
MILLARD        CLOUDY    51  44  78 CALM      30.01S
OFFUTT AFB     CLOUDY    49  43  82 NW3       30.00R
PLATTSMOUTH    CLOUDY    50  42  74 W3        30.01S
WAHOO          FAIR      47  40  77 CALM      30.02R
$$




USA.gov is the U.S. government's official web portal to all federal, state and local government web resources and services.